Terminal Aerodrome Forecast
Issued by NWS Oklahoma City, OK

Home | Current Version | Previous Version | Text Only | Print | Product List | Glossary On
Versions: 1 2 3 4 5 6 7 8 9 10 11 12 13 14 15 16 17 18 19 20 21 22 23 24
000
FTUS44 KOUN 290528
TAFOUN
TAF
KOUN 290528Z 2906/3006 18014KT P6SM FEW250 WS015/23055KT
     FM291500 19016G23KT P6SM SCT250
     FM300100 18013KT P6SM FEW250=

USA.gov is the U.S. government's official web portal to all federal, state and local government web resources and services.